GW1159 Weather Reports


time (UTC)temp
C
wind
direction
speed
KPH
gust
KPH
rain 1hr
cm
rain 24hr
cm
rain mn
cm
humidity
%
barometer
mb
20260507064556 16 135 4.8 16.1 0.00 0.79 0.00 67 1013.5
20260507064049 16 180 4.8 12.9 0.00 0.79 0.00 68 1013.5
20260507063547 15 119 4.8 12.9 0.00 0.79 0.00 69 1013.6
20260507063057 15 104 3.2 12.9 0.00 0.79 0.00 69 1013.5
20260507062548 15 115 3.2 12.9 0.00 0.79 0.00 71 1013.4
20260507062048 15 219 3.2 11.3 0.00 0.79 0.00 71 1013.4
20260507061555 15 117 4.8 11.3 0.00 0.79 0.00 72 1013.5
20260507061047 15 109 1.6 11.3 0.00 0.79 0.00 72 1013.5
20260507060551 14 136 4.8 11.3 0.00 0.79 0.00 73 1013.3
20260507060104 14 84 4.8 9.7 0.00 0.79 0.00 73 1013.2
20260507055553 14 83 3.2 8.0 0.00 1.17 0.00 73 1013.2
20260507055050 14 117 1.6 8.0 0.00 1.17 0.00 75 1013.3
20260507054559 14 104 3.2 8.0 0.00 1.17 0.00 75 1013.2
20260507054051 14 72 3.2 6.4 0.00 1.17 0.00 75 1013.1
20260507053551 13 0 0.0 6.4 0.00 1.17 0.00 78 1013.0
20260507053056 13 0 0.0 6.4 0.00 1.17 0.00 82 1013.0
20260507052550 12 153 1.6 4.8 0.00 1.17 0.00 83 1013.0
20260507052050 12 95 1.6 4.8 0.00 1.17 0.00 84 1013.0
20260507051553 11 0 0.0 4.8 0.00 1.17 0.00 85 1013.0
20260507051051 11 17 0.0 4.8 0.00 1.17 0.00 86 1012.9
20260507050548 11 103 0.0 3.2 0.00 1.17 0.00 87 1012.9
20260507050100 10 0 0.0 3.2 0.00 1.17 0.00 87 1012.8
20260507045553 10 0 0.0 1.6 0.00 1.75 0.00 87 1012.7
20260507045048 10 0 0.0 1.6 0.00 1.75 0.00 86 1012.8
20260507044552 10 0 0.0 0.0 0.00 1.75 0.00 87 1012.8
20260507044047 10 0 0.0 0.0 0.00 1.75 0.00 88 1012.6
20260507043550 9 0 0.0 1.6 0.00 1.75 0.00 90 1012.5
20260507043058 8 0 0.0 1.6 0.00 1.75 0.00 91 1012.6
20260507042551 8 0 0.0 1.6 0.00 1.75 0.00 91 1012.5
20260507042053 8 0 0.0 1.6 0.00 1.75 0.00 91 1012.4
20260507041556 8 0 0.0 1.6 0.00 1.75 0.00 91 1012.4
20260507041052 8 0 0.0 0.0 0.00 1.75 0.00 92 1012.4
20260507040551 8 0 0.0 0.0 0.00 1.75 0.00 91 1012.3
20260507040101 8 0 0.0 0.0 0.00 1.75 0.00 91 1012.3
20260507035550 8 0 0.0 0.0 0.00 1.98 0.00 91 1012.3
20260507035050 9 0 0.0 0.0 0.00 1.98 0.00 90 1012.2
20260507034559 9 0 0.0 0.0 0.00 1.98 0.00 90 1012.2
20260507034049 9 0 0.0 1.6 0.00 1.98 0.00 90 1012.1
20260507033552 9 0 0.0 1.6 0.00 1.98 0.00 89 1012.0
20260507033054 10 0 0.0 1.6 0.00 1.98 0.00 90 1012.1
20260507032551 9 259 1.6 1.6 0.00 1.98 0.00 91 1012.1
20260507032052 9 0 0.0 1.6 0.00 1.98 0.00 91 1012.1
20260507031553 9 0 0.0 1.6 0.00 1.98 0.00 91 1012.1
20260507031052 9 0 0.0 1.6 0.00 1.98 0.00 91 1011.9
20260507030550 9 0 0.0 1.6 0.00 1.98 0.00 91 1011.9
20260507030056 9 0 0.0 1.6 0.00 1.98 0.00 91 1012.0
20260507025552 10 256 0.0 1.6 0.00 2.34 0.00 90 1011.9
20260507025050 10 0 0.0 0.0 0.00 2.34 0.00 90 1011.9
20260507024558 10 0 0.0 0.0 0.00 2.34 0.00 90 1011.9
20260507024048 10 0 0.0 1.6 0.00 2.34 0.00 90 1011.8
20260507023548 10 0 0.0 1.6 0.00 2.34 0.00 89 1011.8
20260507023054 10 0 0.0 1.6 0.00 2.34 0.00 89 1011.6
20260507022548 10 283 0.0 1.6 0.00 2.34 0.00 89 1011.8
20260507022051 11 0 0.0 0.0 0.00 2.34 0.00 88 1011.7
20260507021557 11 0 0.0 1.6 0.00 2.34 0.00 88 1011.7
20260507021050 11 0 0.0 1.6 0.00 2.34 0.00 87 1011.7
20260507020554 11 217 0.0 1.6 0.00 2.34 0.00 87 1011.7
20260507020057 11 0 0.0 1.6 0.00 2.34 0.00 86 1011.7
20260507015550 11 0 0.0 3.2 0.00 2.72 0.00 85 1011.7
20260507015048 12 0 0.0 3.2 0.00 2.72 0.00 83 1011.7
20260507014552 12 0 0.0 6.4 0.00 2.72 0.00 82 1011.8
20260507014050 12 0 0.0 6.4 0.00 2.72 0.00 81 1011.7
20260507013551 12 203 1.6 6.4 0.00 2.72 0.00 84 1011.5
20260507013050 12 0 0.0 3.2 0.00 2.72 0.00 85 1011.5
20260507012551 11 6 1.6 3.2 0.00 2.72 0.00 87 1011.6
20260507012048 11 255 0.0 1.6 0.00 2.72 0.00 88 1011.5
20260507011552 11 255 0.0 1.6 0.00 2.72 0.00 89 1011.4
20260507011047 11 0 0.0 1.6 0.00 2.72 0.00 89 1011.4
20260507010551 11 0 0.0 1.6 0.00 2.72 0.00 90 1011.4
20260507010110 10 0 0.0 1.6 0.00 2.72 0.00 90 1011.4
20260507005551 10 0 0.0 0.0 0.00 3.17 0.00 89 1011.4
20260507005052 11 0 0.0 1.6 0.00 3.17 0.00 88 1011.4
20260507004556 11 0 0.0 1.6 0.00 3.17 0.00 89 1011.5
20260507004051 10 0 0.0 1.6 0.00 3.17 0.00 90 1011.5
20260507003552 11 0 0.0 1.6 0.00 3.17 0.00 89 1011.4
20260507003057 11 0 0.0 1.6 0.00 3.17 0.00 89 1011.5
20260507002548 11 0 0.0 1.6 0.00 3.17 0.00 90 1011.5
20260507002050 11 0 0.0 1.6 0.00 3.17 0.00 89 1011.5
20260507001557 11 0 0.0 0.0 0.00 3.17 0.00 89 1011.5
20260507001050 11 0 0.0 0.0 0.00 3.17 0.00 88 1011.5
20260507000555 11 0 0.0 0.0 0.00 3.17 0.00 87 1011.6
20260507000056 11 0 0.0 0.0 0.00 3.17 0.00 87 1011.7
20260506235551 11 0 0.0 1.6 0.00 3.25 0.00 87 1011.6
20260506235050 11 0 0.0 1.6 0.00 3.25 0.00 87 1011.6
20260506234602 11 0 0.0 1.6 0.00 3.25 0.00 86 1011.5
20260506234050 11 0 0.0 1.6 0.00 3.25 0.00 85 1011.6
20260506233551 12 0 0.0 1.6 0.00 3.25 0.00 85 1011.6
20260506233100 12 0 0.0 1.6 0.00 3.25 0.00 84 1011.6
20260506232550 12 202 0.0 3.2 0.00 3.25 0.00 85 1011.6
20260506232048 12 231 0.0 3.2 0.00 3.25 0.00 85 1011.7
20260506231557 12 0 1.6 4.8 0.00 3.25 0.00 85 1011.7
20260506231048 12 0 1.6 4.8 0.00 3.25 0.00 85 1011.7
20260506230550 12 0 0.0 1.6 0.00 3.25 0.00 84 1011.8
20260506230057 12 243 0.0 1.6 0.00 3.25 0.00 84 1011.7
20260506225551 12 0 0.0 1.6 0.00 3.25 0.00 84 1011.8
20260506225053 12 0 0.0 1.6 0.00 3.25 0.00 83 1011.8
20260506224554 12 245 0.0 3.2 0.00 3.25 0.00 83 1011.8
20260506224050 12 0 0.0 4.8 0.00 3.25 0.00 83 1011.7
20260506223550 12 0 0.0 4.8 0.00 3.25 0.00 83 1011.8
20260506223059 12 273 0.0 3.2 0.00 3.25 0.00 83 1011.6
20260506222550 12 0 0.0 8.0 0.00 3.25 0.00 83 1011.6
20260506222051 12 318 1.6 8.0 0.00 3.25 0.00 83 1011.5
20260506221551 12 340 1.6 4.8 0.00 3.25 0.00 82 1011.5
20260506221050 12 0 0.0 1.6 0.00 3.25 0.00 81 1011.5
20260506220550 12 0 0.0 1.6 0.00 3.25 0.00 81 1011.4
20260506220054 12 0 0.0 3.2 0.00 3.25 0.00 82 1011.3
20260506215549 12 0 0.0 3.2 0.00 3.25 3.25 82 1011.4
20260506215048 13 0 0.0 3.2 0.00 3.25 3.25 81 1011.3
20260506214556 13 0 0.0 3.2 0.00 3.25 3.25 80 1011.3
20260506214051 12 0 0.0 3.2 0.00 3.25 3.25 80 1011.2
20260506213551 13 0 0.0 3.2 0.00 3.25 3.25 81 1011.2
20260506213056 13 106 0.0 1.6 0.00 3.25 3.25 80 1011.3
20260506212551 13 134 0.0 1.6 0.00 3.25 3.25 80 1011.2
20260506212051 13 0 0.0 1.6 0.00 3.25 3.25 79 1011.2
20260506211554 13 0 0.0 1.6 0.00 3.25 3.25 79 1011.2
20260506211050 13 0 0.0 1.6 0.00 3.25 3.25 78 1011.2
20260506210554 13 0 0.0 3.2 0.00 3.25 3.25 76 1011.1
20260506210053 14 0 0.0 3.2 0.00 3.25 3.25 75 1011.1
20260506205550 14 0 0.0 1.6 0.00 3.25 3.25 72 1011.1
20260506205051 14 0 0.0 1.6 0.00 3.25 3.25 73 1011.0
20260506204555 14 167 0.0 1.6 0.00 3.25 3.25 73 1010.9
20260506204055 14 0 0.0 3.2 0.00 3.25 3.25 73 1011.0
20260506203551 14 155 0.0 3.2 0.00 3.25 3.25 73 1011.1
20260506203053 14 158 0.0 1.6 0.00 3.25 3.25 74 1011.0
20260506202553 14 0 0.0 1.6 0.00 3.25 3.25 74 1011.0
20260506202051 13 137 0.0 1.6 0.00 3.25 3.25 75 1010.9
20260506201553 13 0 0.0 1.6 0.00 3.25 3.25 76 1010.9
20260506201046 13 129 0.0 1.6 0.00 3.25 3.25 77 1010.8
20260506200547 13 136 0.0 1.6 0.00 3.25 3.25 77 1010.8
20260506200056 14 98 0.0 0.0 0.00 3.25 3.25 76 1010.8
20260506195551 14 0 0.0 0.0 0.00 3.25 3.25 76 1010.7
20260506195047 14 0 0.0 1.6 0.00 3.25 3.25 75 1010.7
20260506194552 15 0 0.0 1.6 0.00 3.25 3.25 75 1010.6
20260506194047 15 0 0.0 1.6 0.00 3.25 3.25 74 1010.6
20260506193546 15 0 0.0 3.2 0.00 3.25 3.25 75 1010.6
20260506193049 15 0 0.0 3.2 0.00 3.25 3.25 75 1010.3
20260506192549 15 115 0.0 3.2 0.00 3.25 3.25 73 1010.2
20260506192049 15 0 0.0 1.6 0.00 3.25 3.25 73 1010.2
20260506191553 15 0 0.0 0.0 0.00 3.25 3.25 71 1010.0
20260506191048 15 0 0.0 4.8 0.00 3.25 3.25 71 1009.9
20260506190547 16 0 0.0 4.8 0.00 3.25 3.25 71 1009.9
20260506190053 16 103 0.0 3.2 0.00 3.25 3.25 69 1009.8
20260506185547 16 0 0.0 4.8 0.00 3.25 3.25 67 1009.8
20260506185046 16 0 0.0 4.8 0.00 3.25 3.25 70 1009.7
20260506184558 16 0 0.0 4.8 0.00 3.25 3.25 68 1009.6
20260506184047 16 0 0.0 4.8 0.00 3.25 3.25 69 1009.6
20260506183547 16 65 1.6 4.8 0.00 3.25 3.25 67 1009.6
20260506183057 16 69 0.0 6.4 0.00 3.25 3.25 68 1009.5
20260506182546 16 82 1.6 6.4 0.00 3.25 3.25 68 1009.5
20260506182047 16 3 0.0 6.4 0.00 3.25 3.25 68 1009.5
20260506181552 16 0 0.0 1.6 0.00 3.25 3.25 67 1009.4
20260506181048 16 0 0.0 3.2 0.00 3.25 3.25 69 1009.4
20260506180548 17 314 0.0 6.4 0.00 3.25 3.25 67 1009.2
20260506180052 17 0 0.0 6.4 0.00 3.25 3.25 69 1009.3
20260506175548 17 224 1.6 6.4 0.00 3.25 3.25 68 1009.2
20260506175047 17 0 0.0 6.4 0.00 3.25 3.25 69 1009.2
20260506174559 17 229 0.0 6.4 0.00 3.25 3.25 68 1009.1
20260506174047 17 233 1.6 6.4 0.00 3.25 3.25 67 1009.1
20260506173547 17 174 3.2 8.0 0.00 3.25 3.25 66 1009.1
20260506173122 17 224 1.6 9.7 0.00 3.25 3.25 66 1009.1
20260506172546 17 118 1.6 9.7 0.00 3.25 3.25 67 1009.0
20260506172046 17 142 1.6 8.0 0.00 3.25 3.25 70 1009.0
20260506171552 18 218 1.6 6.4 0.00 3.25 3.25 69 1008.9
20260506171047 18 232 0.0 3.2 0.00 3.25 3.25 72 1008.8
20260506170550 18 0 0.0 4.8 0.00 3.25 3.25 71 1008.9
20260506170056 18 0 0.0 4.8 0.00 3.25 3.25 69 1008.9
20260506165547 18 255 0.0 3.2 0.00 3.25 3.25 70 1008.9
20260506165048 18 0 0.0 3.2 0.00 3.25 3.25 70 1008.9
20260506164552 18 0 0.0 4.8 0.00 3.25 3.25 70 1008.9
20260506164048 18 126 0.0 4.8 0.00 3.25 3.25 69 1008.8
20260506163547 18 140 1.6 6.4 0.00 3.25 3.25 67 1008.8
20260506163054 18 195 0.0 8.0 0.00 3.25 3.25 68 1008.9
20260506162546 18 219 1.6 16.1 0.00 3.25 3.25 69 1008.9
20260506162047 18 220 6.4 16.1 0.00 3.25 3.25 72 1008.9
20260506161600 18 176 0.0 3.2 0.00 3.25 3.25 78 1008.9
20260506161048 18 0 0.0 3.2 0.00 3.25 3.25 80 1008.8
20260506160547 18 226 0.0 3.2 0.00 3.25 3.25 79 1008.9
20260506160109 18 0 0.0 0.0 0.00 3.25 3.25 74 1008.8
20260506155548 18 0 0.0 1.6 0.00 3.25 3.25 77 1008.8
20260506155048 18 0 0.0 3.2 0.00 3.25 3.25 77 1008.8
20260506154602 18 0 0.0 4.8 0.00 3.25 3.25 76 1008.7
20260506154047 18 100 0.0 4.8 0.00 3.25 3.25 77 1008.6
20260506153546 18 55 1.6 4.8 0.00 3.25 3.25 77 1008.7
20260506153054 18 0 0.0 1.6 0.00 3.25 3.25 76 1008.7
20260506152546 19 2 0.0 1.6 0.00 3.25 3.25 75 1008.7
20260506152048 19 1 0.0 3.2 0.00 3.25 3.25 76 1008.6
20260506151555 19 0 0.0 6.4 0.00 3.25 3.25 77 1008.7
20260506151047 18 262 0.0 8.0 0.00 3.25 3.25 75 1008.7
20260506150547 19 223 1.6 8.0 0.00 3.25 3.25 75 1008.7
20260506150100 19 268 1.6 8.0 0.00 3.25 3.25 76 1008.7
20260506145548 19 142 0.0 3.2 0.00 3.25 3.25 78 1008.8
20260506145049 19 131 0.0 3.2 0.00 3.25 3.25 77 1008.9
20260506144612 19 263 0.0 6.4 0.00 3.25 3.25 77 1008.8
20260506144048 18 219 0.0 6.4 0.00 3.25 3.25 77 1008.8
20260506143548 18 215 0.0 9.7 0.00 3.25 3.25 76 1008.7
20260506143056 18 243 0.0 14.5 0.00 3.25 3.25 79 1008.8
20260506142550 18 120 3.2 14.5 0.00 3.25 3.25 78 1008.8
20260506142047 18 243 1.6 11.3 0.00 3.25 3.25 78 1009.0
20260506141556 18 89 3.2 11.3 0.00 3.25 3.25 79 1008.8
20260506141051 19 162 1.6 9.7 0.00 3.25 3.25 79 1008.9
20260506140547 19 96 1.6 9.7 0.00 3.25 3.25 80 1009.0
20260506140105 18 121 3.2 9.7 0.00 3.25 3.25 79 1009.1
20260506135548 19 158 1.6 8.0 0.00 3.25 3.25 79 1009.1
20260506135048 19 243 1.6 8.0 0.00 3.25 3.25 78 1009.1
20260506134601 19 165 1.6 11.3 0.00 3.25 3.25 81 1009.3
20260506134047 18 142 1.6 11.3 0.00 3.25 3.25 79 1009.4
20260506133547 18 208 3.2 8.0 0.00 3.25 3.25 76 1009.5
20260506133134 18 214 3.2 6.4 0.00 3.25 3.25 81 1009.6
20260506132549 18 172 1.6 6.4 0.00 3.25 3.25 83 1009.7
20260506132048 17 107 1.6 6.4 0.00 3.25 3.25 86 1009.8
20260506131554 17 153 0.0 11.3 0.00 3.25 3.25 88 1009.8
20260506131051 17 159 3.2 11.3 0.00 3.25 3.25 87 1009.7
20260506130547 17 83 3.2 11.3 0.03 3.25 3.25 88 1009.7
20260506130140 17 170 1.6 4.8 0.05 3.25 3.25 88 1010.0
20260506125549 17 269 0.0 3.2 0.05 3.25 3.25 89 1010.2
20260506125047 17 0 0.0 3.2 0.05 3.25 3.25 88 1010.0
20260506124554 17 134 0.0 3.2 0.08 3.25 3.25 90 1010.0
20260506124048 17 0 0.0 4.8 0.08 3.25 3.25 89 1010.0
20260506123548 17 0 0.0 4.8 0.08 3.25 3.25 88 1009.9
20260506123055 17 0 0.0 4.8 0.08 3.25 3.25 88 1010.0
20260506122547 17 158 0.0 4.8 0.08 3.25 3.25 89 1009.9
20260506122046 17 0 0.0 4.8 0.08 3.25 3.25 86 1009.7
20260506121556 17 169 0.0 4.8 0.08 3.25 3.25 84 1009.7
20260506121048 17 0 0.0 9.7 0.08 3.25 3.25 86 1009.6
20260506120547 17 0 1.6 9.7 0.03 3.20 3.20 85 1009.8
20260506120104 18 237 3.2 9.7 0.00 3.17 3.17 84 1010.1
20260506115547 18 338 1.6 11.3 0.00 3.17 3.17 83 1009.8
20260506115048 18 309 1.6 16.1 0.00 3.17 3.17 83 1009.8
20260506114603 18 222 4.8 16.1 0.00 3.17 3.17 81 1009.8
20260506114047 18 325 4.8 14.5 0.00 3.17 3.17 79 1009.8
20260506113547 18 251 4.8 17.7 0.00 3.17 3.17 77 1009.6
20260506113058 19 228 4.8 17.7 0.00 3.17 3.17 77 1009.6
20260506112547 19 220 4.8 17.7 0.00 3.17 3.17 75 1009.5
20260506112047 19 229 4.8 17.7 0.00 3.17 3.17 74 1009.5
20260506111554 20 185 1.6 9.7 0.00 3.17 3.17 75 1009.6
20260506111049 20 139 3.2 11.3 0.00 3.17 3.17 75 1009.6
20260506110547 20 217 1.6 11.3 0.00 3.17 3.17 76 1009.6
20260506110054 20 152 1.6 16.1 0.00 3.17 3.17 72 1009.5
20260506105547 20 127 3.2 16.1 0.00 3.17 3.17 73 1009.5
20260506105048 20 193 4.8 16.1 0.00 3.17 3.17 72 1009.5
20260506104600 20 141 3.2 11.3 0.00 3.17 3.17 76 1009.6
20260506104049 20 143 6.4 16.1 0.00 3.17 3.17 75 1009.7
20260506103549 20 71 3.2 16.1 0.00 3.17 3.17 76 1009.5
20260506103049 20 132 3.2 19.3 0.00 3.17 3.17 76 1009.7
20260506102549 20 205 4.8 19.3 0.00 3.17 3.17 76 1009.5
20260506102048 20 88 3.2 20.9 0.00 3.17 3.17 78 1009.4
20260506101550 20 150 3.2 20.9 0.00 3.17 3.17 80 1009.6
20260506101047 20 58 6.4 20.9 0.00 3.17 3.17 77 1009.5
20260506100547 20 229 3.2 19.3 0.00 3.17 3.17 83 1009.6
20260506100106 20 156 1.6 9.7 0.00 3.17 3.17 85 1009.4
20260506095547 19 259 0.0 9.7 0.00 3.45 3.17 88 1009.6
20260506095047 19 167 3.2 9.7 0.00 3.45 3.17 87 1009.7
20260506094600 18 309 0.0 6.4 0.00 3.45 3.17 91 1009.8
20260506094046 18 84 1.6 6.4 0.00 3.45 3.17 89 1009.8
20260506093550 18 98 0.0 9.7 0.00 3.45 3.17 94 1009.7
20260506093053 17 86 0.0 9.7 0.00 3.45 3.17 94 1009.8
20260506092549 17 103 1.6 8.0 0.10 3.45 3.17 93 1009.7
20260506092047 17 0 0.0 8.0 0.13 3.45 3.17 96 1009.8
20260506091553 16 123 1.6 4.8 0.15 3.45 3.17 96 1009.9
20260506091048 16 0 0.0 8.0 0.18 3.45 3.17 97 1009.8
20260506090546 16 0 1.6 8.0 0.23 3.45 3.17 96 1009.8
20260506090051 15 214 1.6 8.0 0.25 3.45 3.17 97 1009.9
20260506085547 15 214 1.6 6.4 0.25 3.51 3.17 97 1010.0
20260506085051 15 239 0.0 1.6 0.28 3.51 3.17 98 1010.0
20260506084554 15 0 0.0 1.6 0.28 3.51 3.17 97 1010.0
20260506084047 15 0 0.0 1.6 0.28 3.51 3.17 97 1010.0
20260506083548 15 125 0.0 1.6 0.28 3.51 3.17 97 1010.1
20260506083054 14 0 0.0 1.6 0.28 3.48 3.15 97 1010.1
20260506082547 14 0 0.0 1.6 0.18 3.38 3.05 97 1010.1
20260506082049 14 0 0.0 4.8 0.18 3.38 3.02 97 1010.0
20260506081606 14 97 0.0 4.8 0.18 3.35 3.00 97 1010.0
20260506081049 14 0 1.6 4.8 0.15 3.30 2.97 97 1010.1
20260506080549 14 0 0.0 8.0 0.13 3.28 2.92 97 1010.1
20260506073052 14 0 0.0 3.2 0.18 3.23 2.87 97 1010.0
20260506072547 14 0 0.0 3.2 0.18 3.23 2.87 97 1010.1
20260506072046 14 0 0.0 3.2 0.18 3.20 2.84 97 1010.0
20260506071551 13 0 0.0 3.2 0.18 3.17 2.82 97 1010.1
20260506071047 13 0 0.0 3.2 0.23 3.17 2.82 97 1010.2
20260506070546 13 0 0.0 3.2 0.28 3.15 2.79 97 1010.2